STARLINK-32149, 60292

Orbit data source: Space-Track

STARLINK-32149, 60292 is a payload satellite owned by SpaceX/Seattle (US) in LEO that was launched on Sun, 28 Jul 2024 UTC via an FALCON 9 launch vehicle from the Air Force Eastern Test Range (AFETR). Payload-class satellites include a variety of spacecraft equipped with specific instruments for various scientific and technological missions. These include communications satellites like Starlink; space stations such as the ISS; scientific satellites like the Hubble; Earth observation satellites from companies like Planet Labs, Umbra, and HawkEye 360; GPS; miniature CubeSats for education and research; and military/defense satellites.

Loading next visibility...
Identifier
60292, 2024-132Q
Orbit
LEO
Country
Flag of USUS
Related business
Manufacturer
SpaceX/Seattle
Mission
Operational Commercial Communications
Bus & Motor
STARLINK V2M, Unknown motor
Mass
730 kg wet, ~700 kg dry
Launch date (UTC)
2024-07-28 (1 year ago)
Launch vehicle
FALCON 9
Launch site
Air Force Eastern Test Range (AFETR)
Object type
Payload
Rocket body
Debris
Shape & HBR
Box + 2 Pan, 17.7 m
Radar Cross Section
33.884 m², Large (>1 m²)

Expand to show TLE details & history
Last TLE update: 18 hours ago

TLE from 18 hours ago
0 STARLINK-32149
1 60292U 24132Q   25299.37353264 -.00000202  00000-0  53015-5 0  9995
2 60292  53.1619 316.4842 0001406  90.3795 269.7366 15.30190414 70990
Epoch: 2025-10-26T08:57Z
TLE epoch observation values (Epoch: 2025-10-26T08:57:53.220Z)
Latitude
-0.00007°
Longitude
147.02174°
Altitude
476.148 km
Speed
7.629 km/s
True Right ascension
21h 05m 56s
True Declination
0° 00' 00"
Sunlit
Object was in daylight at epoch
Visualization orbit readout
Latitude
Unknown
Longitude
Unknown
Altitude
Unknown
Speed
Unknown
Apparent Right ascension
Unknown
Apparent Declination
Unknown
Sunlit
N/A
Visualization observer readout
Local Sidereal Time
22:01:16
Azimuth
Unknown
Elevation
Unknown
Doppler factor
Unknown
Orbital elements
Apogee altitude
476.463 km
Perigee altitude
474.536 km
Semi-major axis
6,853.637 km
Eccentricity
0.00014
Inclination
53.1619°
RAAN
316.4842°
Arg. of periapsis
90.3795°
True anomaly
269.72049°
Mean anomaly
269.7366°
Eccentric anomaly
269.72854°
Mean motion
3.82527 °/min
Orbital period
94.11 mins
BSTAR
0.0000053015
Loading maneuver chart data...
Computing Atmospheric mass density...
Loading historical data...
Loading historical data...
Loading historical data...
Loading historical data...
Loading historical data...
Loading historical data...
Loading historical data...

Documentation

Showing up to 5 results
|